Location: LDNL
(36.4545°S, 141.6685°E)
Time: 12:20:31
(UTC+10:00)

Tiros 1 despin weight - Pass Details

Date: 12 August 2022
Orbit: 590 x 639 km, 48.2° (Epoch: 23 September)

Event Time Altitude Azimuth Distance (km) Brightness Sun altitude
Rises 23:41:52 0° 313° (NW) 2,876 - -65.0°
Reaches altitude 10° 23:44:09 10° 315° (NW) 1,985 - -65.3°
Maximum altitude 23:48:42 72° 38° (NE) 667 - -65.7°
Drops below altitude 10° 23:53:23 10° 122° (ESE) 2,033 - -66.2°
Sets 23:55:44 0° 123° (ESE) 2,952 - -66.4°
